W7TJC Weather Reports


Display with metric or nautical units.
time (UTC)temp
F
wind
direction
speed
MPH
gust
MPH
rain 1hr
in
rain 24hr
in
rain mn
in
humidity
%
barometer
mb
20260505230336 62 113 0.0 0.0 0.00 0.00 0.00 77 1017.1
20260505225833 61 161 1.0 1.0 0.00 0.00 0.00 77 1017.2
20260505225330 62 110 0.0 0.0 0.00 0.00 0.00 77 1017.2
20260505224825 61 169 0.0 0.0 0.00 0.00 0.00 78 1017.2
20260505224323 61 185 0.0 0.0 0.00 0.00 0.00 77 1017.2
20260505223820 61 223 2.0 2.0 0.00 0.00 0.00 78 1017.2
20260505223317 60 201 1.0 1.0 0.00 0.00 0.00 78 1017.2
20260505222813 60 216 2.0 2.0 0.00 0.00 0.00 78 1017.3
20260505222309 61 219 2.0 2.0 0.00 0.00 0.00 78 1017.3
20260505221806 61 189 0.0 1.0 0.00 0.00 0.00 77 1017.5
20260505221303 61 111 1.0 1.0 0.00 0.00 0.00 78 1017.5
20260505220800 61 104 1.0 1.0 0.00 0.00 0.00 77 1017.4
20260505220257 61 137 0.0 0.0 0.00 0.00 0.00 77 1017.5
20260505215755 61 122 0.0 0.0 0.00 0.00 0.00 78 1017.6
20260505215253 61 155 0.0 0.0 0.00 0.00 0.00 78 1017.5
20260505214750 60 157 0.0 1.0 0.00 0.00 0.00 78 1017.6
20260505214248 60 207 2.0 2.0 0.00 0.00 0.00 78 1017.5
20260505213745 60 141 0.0 0.0 0.00 0.00 0.00 78 1017.7
20260505213242 60 121 1.0 1.0 0.00 0.00 0.00 79 1017.6
20260505212737 60 92 0.0 0.0 0.00 0.00 0.00 78 1017.6
20260505212235 59 78 2.0 2.0 0.00 0.00 0.00 78 1017.5
20260505211732 60 139 1.0 1.0 0.00 0.00 0.00 79 1017.7
20260505211230 60 107 0.0 0.0 0.00 0.00 0.00 79 1017.5
20260505210726 59 199 1.0 1.0 0.00 0.00 0.00 79 1017.6
20260505210222 59 125 1.0 1.0 0.00 0.00 0.00 79 1017.7
20260505205720 59 155 0.0 0.0 0.00 0.00 0.00 79 1017.8
20260505205218 59 104 0.0 0.0 0.00 0.00 0.00 79 1017.7
20260505204714 59 113 0.0 0.0 0.00 0.00 0.00 79 1017.7
20260505204213 59 121 0.0 0.0 0.00 0.00 0.00 78 1017.8
20260505203709 59 109 0.0 0.0 0.00 0.00 0.00 79 1017.9
20260505203206 59 210 1.0 2.0 0.00 0.00 0.00 80 1017.8
20260505202702 59 121 0.0 0.0 0.00 0.00 0.00 80 1017.7
20260505202158 58 134 0.0 1.0 0.00 0.00 0.00 80 1017.8
20260505201654 58 112 0.0 1.0 0.00 0.00 0.00 80 1018.0
20260505201153 58 154 0.0 0.0 0.00 0.00 0.00 80 1017.9
20260505200650 58 222 2.0 2.0 0.00 0.00 0.00 81 1017.8
20260505200147 58 206 3.0 3.0 0.00 0.00 0.00 80 1017.6
20260505195643 58 138 0.0 0.0 0.00 0.00 0.00 81 1017.8
20260505195140 58 135 0.0 0.0 0.00 0.00 0.00 81 1017.6
20260505194638 58 190 0.0 0.0 0.00 0.00 0.00 81 1017.6
20260505194134 57 158 0.0 0.0 0.00 0.00 0.00 81 1017.9
20260505193630 57 102 0.0 0.0 0.00 0.00 0.00 81 1017.8
20260505193127 57 204 1.0 2.0 0.00 0.00 0.00 81 1017.9
20260505192626 57 198 0.0 1.0 0.00 0.00 0.00 81 1017.7
20260505192123 57 165 0.0 1.0 0.00 0.00 0.00 81 1017.8
20260505191621 57 199 1.0 2.0 0.00 0.00 0.00 81 1017.7
20260505191119 58 166 0.0 0.0 0.00 0.00 0.00 81 1017.5
20260505190615 57 225 1.0 1.0 0.00 0.00 0.00 81 1017.4
20260505190110 58 106 0.0 0.0 0.00 0.00 0.00 81 1017.8
20260505185607 57 117 0.0 0.0 0.00 0.00 0.00 81 1017.7
20260505185103 57 118 1.0 1.0 0.00 0.00 0.00 81 1017.6
20260505184600 57 76 0.0 1.0 0.00 0.00 0.00 81 1017.8
20260505184057 57 86 0.0 0.0 0.00 0.00 0.00 81 1017.7
20260505183553 57 194 1.0 2.0 0.00 0.00 0.00 80 1017.3
20260505183051 57 102 0.0 0.0 0.00 0.00 0.00 81 1017.5
20260505182547 57 195 0.0 0.0 0.00 0.00 0.00 81 1017.7
20260505182044 57 81 0.0 0.0 0.00 0.00 0.00 81 1017.6
20260505181541 57 123 0.0 0.0 0.00 0.00 0.00 82 1017.7
20260505181038 57 224 2.0 2.0 0.00 0.00 0.00 82 1017.5
20260505180533 57 117 0.0 0.0 0.00 0.00 0.00 82 1017.5
20260505180032 57 111 0.0 0.0 0.00 0.00 0.00 81 1017.5
20260505175532 56 122 0.0 0.0 0.00 0.00 0.00 83 1017.7
20260505175029 56 164 0.0 1.0 0.00 0.00 0.00 82 1017.7
20260505174526 56 104 0.0 1.0 0.00 0.00 0.00 83 1017.3
20260505174022 56 108 0.0 0.0 0.00 0.00 0.00 83 1017.7
20260505173519 56 191 1.0 1.0 0.00 0.00 0.00 83 1017.6
20260505173016 56 150 0.0 0.0 0.00 0.00 0.00 82 1017.5
20260505172514 56 146 1.0 1.0 0.00 0.00 0.00 82 1017.5
20260505172009 56 220 2.0 2.0 0.00 0.00 0.00 83 1017.4
20260505171505 56 172 0.0 0.0 0.00 0.00 0.00 82 1017.3
20260505171002 56 108 0.0 0.0 0.00 0.00 0.00 83 1017.5
20260505170458 55 186 1.0 1.0 0.00 0.00 0.00 83 1017.4
20260505165954 55 156 0.0 0.0 0.00 0.00 0.00 83 1017.4
20260505165450 55 139 0.0 0.0 0.00 0.00 0.00 83 1017.2
20260505164946 55 140 0.0 0.0 0.00 0.00 0.00 83 1017.1
20260505164442 55 166 0.0 0.0 0.00 0.00 0.00 83 1017.2
20260505163940 55 180 0.0 0.0 0.00 0.00 0.00 83 1017.3
20260505163439 55 149 1.0 1.0 0.00 0.00 0.00 83 1017.1
20260505162938 55 205 1.0 2.0 0.00 0.00 0.00 83 1017.4
20260505162433 55 160 1.0 1.0 0.00 0.00 0.00 83 1017.3
20260505161930 55 210 2.0 2.0 0.00 0.00 0.00 82 1017.2
20260505161426 55 215 0.0 0.0 0.00 0.00 0.00 83 1017.1
20260505160924 55 201 1.0 1.0 0.00 0.00 0.00 83 1017.1
20260505160422 55 107 0.0 0.0 0.00 0.00 0.00 83 1017.1
20260505152852 54 203 2.0 2.0 0.00 0.00 0.00 83 1016.9
20260505152350 54 97 0.0 0.0 0.00 0.00 0.00 84 1016.8
20260505151849 54 144 0.0 0.0 0.00 0.00 0.00 85 1016.9
20260505151346 54 78 0.0 0.0 0.00 0.00 0.00 84 1016.9
20260505150844 54 131 0.0 0.0 0.00 0.00 0.00 85 1016.7
20260505150341 54 314 0.0 1.0 0.00 0.00 0.00 85 1016.7
20260505140311 54 110 0.0 1.0 0.00 0.00 0.00 87 1016.3
20260505130234 53 116 0.0 0.0 0.00 0.00 0.00 88 1015.3
20260505124724 53 112 0.0 0.0 0.00 0.00 0.00 88 1015.3
20260505124221 53 181 1.0 1.0 0.00 0.00 0.00 88 1015.4
20260505123717 53 145 0.0 0.0 0.00 0.00 0.00 88 1015.4
20260505123214 53 119 0.0 0.0 0.00 0.00 0.00 88 1015.5
20260505122711 53 117 0.0 0.0 0.00 0.00 0.00 88 1015.2
20260505122208 53 173 0.0 0.0 0.00 0.00 0.00 87 1015.2
20260505121704 53 122 0.0 0.0 0.00 0.00 0.00 88 1015.1
20260505121201 53 144 0.0 0.0 0.00 0.00 0.00 88 1015.1
20260505120657 53 127 0.0 0.0 0.00 0.00 0.00 88 1015.2
20260505120153 53 106 0.0 0.0 0.00 0.00 0.00 88 1015.3
20260505115647 53 205 1.0 2.0 0.00 0.00 0.00 88 1015.1
20260505115145 53 186 0.0 1.0 0.00 0.00 0.00 88 1015.2
20260505114642 53 172 0.0 0.0 0.00 0.00 0.00 88 1015.0
20260505114138 53 128 0.0 0.0 0.00 0.00 0.00 88 1014.9
20260505113635 53 131 0.0 0.0 0.00 0.00 0.00 88 1015.2
20260505113131 53 125 1.0 1.0 0.00 0.00 0.00 88 1015.0
20260505112627 53 198 2.0 2.0 0.00 0.00 0.00 88 1015.1
20260505112126 53 93 0.0 1.0 0.00 0.00 0.00 88 1014.9
20260505111625 53 129 0.0 0.0 0.00 0.00 0.00 88 1014.9
20260505111121 53 135 0.0 0.0 0.00 0.00 0.00 88 1014.8
20260505110618 53 142 0.0 1.0 0.00 0.00 0.00 88 1014.9
20260505110115 53 79 1.0 2.0 0.00 0.00 0.00 88 1014.9
20260505102051 54 211 1.0 2.0 0.00 0.00 0.00 88 1014.6
20260505101549 54 237 1.0 1.0 0.00 0.00 0.00 88 1014.5
20260505101045 54 148 0.0 0.0 0.00 0.00 0.00 88 1014.5
20260505100542 54 194 0.0 0.0 0.00 0.00 0.00 88 1014.5
20260505100039 54 153 0.0 0.0 0.00 0.00 0.00 88 1014.5
20260505095535 54 112 0.0 0.0 0.00 0.00 0.00 88 1014.6
20260505095031 54 119 0.0 0.0 0.00 0.00 0.00 88 1014.4
20260505094528 54 111 0.0 0.0 0.00 0.00 0.00 88 1014.6
20260505094024 54 157 0.0 0.0 0.00 0.00 0.00 88 1014.6
20260505093521 54 155 0.0 0.0 0.00 0.00 0.00 88 1014.3
20260505093018 54 123 0.0 0.0 0.00 0.00 0.00 88 1014.3
20260505092516 54 123 0.0 0.0 0.00 0.00 0.00 88 1014.1
20260505092014 54 204 2.0 2.0 0.00 0.00 0.00 88 1014.3
20260505091511 54 152 0.0 0.0 0.00 0.00 0.00 88 1014.3
20260505091009 54 134 0.0 0.0 0.00 0.00 0.00 88 1014.2
20260505090506 54 186 0.0 0.0 0.00 0.00 0.00 88 1014.2
20260505090004 54 144 0.0 0.0 0.00 0.00 0.00 88 1014.2
20260505085501 54 188 0.0 0.0 0.00 0.00 0.00 88 1014.2
20260505084959 54 109 0.0 0.0 0.00 0.00 0.00 89 1014.4
20260505084457 54 136 0.0 0.0 0.00 0.00 0.00 89 1014.1
20260505083955 54 145 0.0 0.0 0.00 0.00 0.00 89 1013.9
20260505083452 54 118 1.0 1.0 0.00 0.00 0.00 89 1014.2
20260505082948 54 118 0.0 0.0 0.00 0.00 0.00 89 1014.0
20260505082444 54 209 2.0 3.0 0.00 0.00 0.00 89 1013.8
20260505081942 54 163 1.0 1.0 0.00 0.00 0.00 89 1014.0
20260505081438 54 97 0.0 0.0 0.00 0.00 0.00 89 1014.2
20260505080934 54 139 1.0 1.0 0.00 0.00 0.00 89 1014.0
20260505080431 54 122 1.0 1.0 0.00 0.00 0.00 89 1013.9
20260505075926 54 207 2.0 2.0 0.00 0.00 0.00 89 1013.9
20260505075423 54 165 1.0 2.0 0.00 0.00 0.00 88 1014.1
20260505074921 54 179 0.0 0.0 0.00 0.00 0.00 89 1014.1
20260505074418 54 98 0.0 0.0 0.00 0.00 0.00 89 1013.9
20260505073915 54 30 0.0 0.0 0.00 0.00 0.00 89 1013.8
20260505073413 54 128 0.0 1.0 0.00 0.00 0.00 89 1013.8
20260505072910 54 124 0.0 0.0 0.00 0.00 0.00 89 1013.8
20260505072406 53 142 0.0 0.0 0.00 0.00 0.00 89 1013.8
20260505071902 53 121 0.0 0.0 0.00 0.00 0.00 89 1013.7
20260505071358 53 127 0.0 0.0 0.00 0.00 0.00 89 1013.6
20260505070857 53 114 0.0 0.0 0.00 0.00 0.00 89 1013.5
20260505070353 53 125 0.0 0.0 0.00 0.00 0.00 89 1013.4
20260505065848 53 137 0.0 0.0 0.00 0.00 0.00 89 1013.4
20260505065345 53 140 0.0 0.0 0.00 0.00 0.00 88 1013.7
20260505064842 54 134 0.0 0.0 0.00 0.00 0.00 88 1013.3
20260505064339 54 141 0.0 0.0 0.00 0.00 0.00 88 1013.3
20260505063837 54 125 0.0 0.0 0.00 0.00 0.00 88 1013.1
20260505063333 54 140 0.0 0.0 0.00 0.00 0.00 88 1013.1
20260505062830 54 119 0.0 0.0 0.00 0.00 0.00 87 1013.2
20260505062327 54 118 0.0 0.0 0.00 0.00 0.00 88 1013.1
20260505061824 54 171 0.0 0.0 0.00 0.00 0.00 87 1013.2
20260505061322 54 191 1.0 1.0 0.00 0.00 0.00 87 1012.8
20260505060819 54 165 0.0 0.0 0.00 0.00 0.00 87 1012.7
20260505060316 54 126 0.0 0.0 0.00 0.00 0.00 87 1013.0
20260505055812 54 102 0.0 0.0 0.00 0.00 0.00 87 1012.8
20260505055308 55 125 0.0 0.0 0.00 0.00 0.00 86 1013.0
20260505054806 55 126 0.0 0.0 0.00 0.00 0.00 86 1012.7
20260505054303 55 146 0.0 0.0 0.00 0.00 0.00 86 1012.8
20260505053801 55 98 0.0 0.0 0.00 0.00 0.00 86 1012.6
20260505053257 55 118 0.0 0.0 0.00 0.00 0.00 86 1012.7
20260505052754 55 123 0.0 1.0 0.00 0.00 0.00 85 1012.5
20260505052251 55 120 0.0 0.0 0.00 0.00 0.00 85 1012.8
20260505051748 55 196 0.0 1.0 0.00 0.00 0.00 85 1012.7
20260505051246 55 154 1.0 1.0 0.00 0.00 0.00 85 1012.6
20260505050744 56 150 0.0 1.0 0.00 0.00 0.00 84 1012.6
20260505050242 56 165 1.0 1.0 0.00 0.00 0.00 84 1012.5
20260505041712 57 192 0.0 1.0 0.00 0.00 0.00 81 1012.1
20260505041209 58 146 0.0 1.0 0.00 0.00 0.00 81 1012.1
20260505040706 58 146 1.0 1.0 0.00 0.00 0.00 80 1012.1
20260505040204 58 148 0.0 0.0 0.00 0.00 0.00 80 1011.9
20260505035700 59 201 2.0 2.0 0.00 0.00 0.00 80 1011.8
20260505035156 59 197 2.0 2.0 0.00 0.00 0.00 79 1011.7
20260505034653 59 148 2.0 2.0 0.00 0.00 0.00 79 1011.7
20260505034150 60 191 1.0 1.0 0.00 0.00 0.00 78 1011.8
20260505033646 60 204 2.0 2.0 0.00 0.00 0.00 77 1011.8
20260505033145 61 150 2.0 2.0 0.00 0.00 0.00 76 1011.7
20260505032643 62 144 0.0 0.0 0.00 0.00 0.00 75 1011.7
20260505032138 62 142 0.0 0.0 0.00 0.00 0.00 75 1011.6
20260505031636 62 145 1.0 1.0 0.00 0.00 0.00 74 1011.4
20260505031132 62 209 2.0 2.0 0.00 0.00 0.00 74 1011.5
20260505030629 63 152 0.0 0.0 0.00 0.00 0.00 73 1011.4
20260505030125 64 192 1.0 1.0 0.00 0.00 0.00 72 1011.3
20260505025621 64 195 1.0 1.0 0.00 0.00 0.00 72 1011.2
20260505025120 65 189 1.0 1.0 0.00 0.00 0.00 71 1011.3
20260505024617 65 202 2.0 2.0 0.00 0.00 0.00 71 1011.3
20260505024114 66 171 1.0 1.0 0.00 0.00 0.00 70 1011.2
20260505023611 66 208 1.0 1.0 0.00 0.00 0.00 69 1011.3
20260505023109 67 196 1.0 1.0 0.00 0.00 0.00 67 1011.3
20260505022606 67 202 2.0 2.0 0.00 0.00 0.00 66 1010.9
20260505022103 67 194 1.0 2.0 0.00 0.00 0.00 66 1011.1
20260505021559 68 198 1.0 1.0 0.00 0.00 0.00 65 1011.2
20260505021056 69 178 1.0 1.0 0.00 0.00 0.00 65 1011.1
20260505020556 69 120 1.0 1.0 0.00 0.00 0.00 64 1011.3
20260505020053 70 212 1.0 1.0 0.00 0.00 0.00 63 1011.2
20260505015550 70 202 1.0 2.0 0.00 0.00 0.00 62 1011.2
20260505015047 71 195 1.0 1.0 0.00 0.00 0.00 61 1011.1
20260505014544 71 188 0.0 1.0 0.00 0.00 0.00 60 1011.2
20260505014041 71 135 1.0 2.0 0.00 0.00 0.00 60 1011.0
20260505013538 72 176 0.0 0.0 0.00 0.00 0.00 59 1010.8
20260505013036 72 118 1.0 1.0 0.00 0.00 0.00 59 1011.1
20260505012533 72 145 0.0 1.0 0.00 0.00 0.00 59 1011.0
20260505012030 73 198 2.0 2.0 0.00 0.00 0.00 57 1011.1
20260505011525 73 110 0.0 0.0 0.00 0.00 0.00 56 1011.0
20260505011023 73 160 1.0 1.0 0.00 0.00 0.00 56 1010.9
20260505010518 73 114 0.0 0.0 0.00 0.00 0.00 54 1011.1
20260505010015 73 97 0.0 0.0 0.00 0.00 0.00 54 1010.8
20260505005512 74 169 0.0 0.0 0.00 0.00 0.00 53 1011.0
20260505005009 74 109 0.0 0.0 0.00 0.00 0.00 54 1011.0
20260505004506 74 139 0.0 0.0 0.00 0.00 0.00 55 1011.0
20260505004003 74 72 0.0 0.0 0.00 0.00 0.00 52 1011.1
20260505003500 75 172 0.0 0.0 0.00 0.00 0.00 53 1011.1
20260505002956 75 133 0.0 0.0 0.00 0.00 0.00 52 1010.9
20260505002452 75 109 0.0 0.0 0.00 0.00 0.00 52 1011.0
20260505001951 75 218 2.0 2.0 0.00 0.00 0.00 50 1010.8
20260505001448 75 113 0.0 0.0 0.00 0.00 0.00 52 1010.9
20260505000945 75 220 2.0 2.0 0.00 0.00 0.00 52 1010.8
20260505000443 75 155 1.0 1.0 0.00 0.00 0.00 51 1011.0
20260504235940 75 208 1.0 1.0 0.00 0.00 0.00 53 1010.9
20260504235437 75 166 1.0 2.0 0.00 0.00 0.00 53 1010.9
20260504234933 75 150 0.0 1.0 0.00 0.00 0.00 52 1011.0
20260504234431 75 106 0.0 0.0 0.00 0.00 0.00 52 1010.8
20260504233927 76 108 1.0 1.0 0.00 0.00 0.00 52 1011.0
20260504233423 76 115 0.0 0.0 0.00 0.00 0.00 53 1011.0
20260504232920 76 130 0.0 0.0 0.00 0.00 0.00 53 1011.1
20260504232417 75 203 0.0 0.0 0.00 0.00 0.00 56 1011.0
20260504231914 75 144 0.0 0.0 0.00 0.00 0.00 53 1010.9
20260504231410 76 205 1.0 1.0 0.00 0.00 0.00 53 1010.8
20260504230907 76 181 1.0 1.0 0.00 0.00 0.00 54 1011.0